GW2897 Weather Reports


Display with metric or nautical units.
time (UTC)temp
F
wind
direction
speed
MPH
gust
MPH
rain 1hr
in
rain 24hr
in
rain mn
in
humidity
%
barometer
mb
20260504223604 78 245 1.0 6.0 0.00 0.00 0.00 37 1013.8
20260504222704 78 194 2.0 6.0 0.00 0.00 0.00 39 1013.9
20260504221804 78 264 1.0 6.0 0.00 0.00 0.00 38 1013.9
20260504220949 78 151 2.0 5.0 0.00 0.00 0.00 38 1013.8
20260504220005 78 229 2.0 5.0 0.00 0.00 0.00 38 1013.7
20260504215404 79 231 2.0 6.0 0.00 0.00 0.00 38 1013.7
20260504214505 79 248 1.0 7.0 0.00 0.00 0.00 36 1013.6
20260504213604 80 142 2.0 7.0 0.00 0.00 0.00 35 1013.6
20260504212704 80 257 2.0 6.0 0.00 0.00 0.00 37 1013.6
20260504211804 80 130 2.0 9.0 0.00 0.00 0.00 36 1013.6
20260504210904 80 206 2.0 8.0 0.00 0.00 0.00 33 1013.6
20260504210004 80 262 2.0 7.0 0.00 0.00 0.00 36 1013.7
20260504205425 80 233 2.0 7.0 0.00 0.00 0.00 33 1013.8
20260504204505 79 277 2.0 9.0 0.00 0.00 0.00 35 1013.8
20260504203604 79 269 2.0 9.0 0.00 0.00 0.00 35 1013.8
20260504202704 80 265 2.0 8.0 0.00 0.00 0.00 34 1013.9
20260504201804 79 263 3.0 7.0 0.00 0.00 0.00 33 1013.9
20260504200904 79 252 2.0 8.0 0.00 0.00 0.00 33 1014.0
20260504200004 79 253 2.0 6.0 0.00 0.00 0.00 33 1014.2
20260504195404 79 180 3.0 8.0 0.00 0.00 0.00 33 1014.2
20260504194504 79 132 2.0 11.0 0.00 0.00 0.00 35 1014.3
20260504193604 78 203 3.0 8.0 0.00 0.00 0.00 38 1014.5
20260504192704 79 134 3.0 10.0 0.00 0.00 0.00 35 1014.6
20260504191825 79 112 2.0 8.0 0.00 0.00 0.00 39 1014.8
20260504190904 77 240 3.0 8.0 0.00 0.00 0.00 38 1015.0
20260504190004 77 238 3.0 10.0 0.00 0.00 0.00 39 1015.0
20260504185403 77 268 3.0 8.0 0.00 0.00 0.00 41 1015.1
20260504184508 77 200 2.0 5.0 0.00 0.00 0.00 41 1015.2
20260504183605 77 244 3.0 7.0 0.00 0.00 0.00 41 1015.3
20260504182725 77 248 3.0 7.0 0.00 0.00 0.00 44 1015.4
20260504181803 77 181 2.0 7.0 0.00 0.00 0.00 42 1015.6
20260504180904 77 246 2.0 7.0 0.00 0.00 0.00 44 1015.5
20260504180004 76 294 2.0 5.0 0.00 0.00 0.00 43 1015.7
20260504175403 75 302 4.0 10.0 0.00 0.00 0.00 47 1015.7
20260504174525 75 269 3.0 10.0 0.00 0.00 0.00 46 1015.9
20260504173604 76 183 3.0 6.0 0.00 0.00 0.00 40 1016.0
20260504172703 75 183 2.0 9.0 0.00 0.00 0.00 41 1016.0
20260504171826 74 275 3.0 8.0 0.00 0.00 0.00 50 1016.1
20260504170905 73 288 4.0 8.0 0.00 0.00 0.00 44 1016.2
20260504150924 69 258 3.0 12.0 0.00 0.00 0.00 51 1017.3
20260504140903 64 265 3.0 10.0 0.00 0.00 0.00 66 1017.4
20260504081805 48 0 0.0 0.0 0.00 0.00 0.00 88 1016.6
20260504080903 48 0 0.0 0.0 0.00 0.00 0.00 88 1016.5
20260504050004 50 0 0.0 0.0 0.00 0.00 0.00 88 1017.2
20260504045435 50 0 0.0 0.0 0.00 0.00 0.00 87 1017.2
20260504044504 51 0 0.0 0.0 0.00 0.00 0.00 86 1017.0
20260504043603 52 0 0.0 0.0 0.00 0.00 0.00 84 1017.0
20260504042723 52 146 0.0 1.0 0.00 0.00 0.00 84 1016.9
20260504041804 52 126 0.0 1.0 0.00 0.00 0.00 82 1017.0
20260504040903 52 109 0.0 2.0 0.00 0.00 0.00 81 1017.0
20260504040004 52 116 0.0 2.0 0.00 0.00 0.00 82 1017.1
20260504035426 52 117 0.0 1.0 0.00 0.00 0.00 83 1017.1
20260504034504 53 127 0.0 2.0 0.00 0.00 0.00 82 1017.0
20260504033603 53 131 0.0 2.0 0.00 0.00 0.00 81 1017.0
20260504032704 53 127 0.0 1.0 0.00 0.00 0.00 78 1017.0
20260504031824 54 128 0.0 2.0 0.00 0.00 0.00 77 1017.0
20260504030903 54 120 1.0 2.0 0.00 0.00 0.00 78 1016.9
20260504030011 54 132 0.0 2.0 0.00 0.00 0.00 80 1016.9
20260504025417 54 125 0.0 1.0 0.00 0.00 0.00 80 1016.9
20260504024524 54 140 0.0 1.0 0.00 0.00 0.00 80 1016.9
20260504023603 54 132 0.0 1.0 0.00 0.00 0.00 80 1016.8
20260504022703 54 134 0.0 1.0 0.00 0.00 0.00 78 1016.7
20260504021803 55 136 0.0 3.0 0.00 0.00 0.00 76 1016.7
20260504020904 54 133 0.0 1.0 0.00 0.00 0.00 80 1016.6
20260504020004 54 136 0.0 1.0 0.00 0.00 0.00 79 1016.5
20260504015406 54 138 0.0 1.0 0.00 0.00 0.00 78 1016.5
20260504014505 54 126 0.0 1.0 0.00 0.00 0.00 82 1016.4
20260504013603 54 0 0.0 0.0 0.00 0.01 0.00 83 1016.2
20260504012704 54 0 0.0 0.0 0.00 0.02 0.00 83 1016.2
20260504011804 54 0 0.0 0.0 0.00 0.03 0.00 81 1016.1
20260504010904 55 0 0.0 0.0 0.00 0.06 0.00 79 1016.0
20260504010003 56 0 0.0 0.0 0.00 0.08 0.00 78 1016.0
20260504005404 56 0 0.0 0.0 0.00 0.08 0.00 75 1016.0
20260504004503 57 0 0.0 0.0 0.00 0.08 0.00 74 1015.9
20260504003603 58 0 0.0 0.0 0.00 0.08 0.00 71 1015.8
20260504002703 59 0 0.0 0.0 0.00 0.08 0.00 67 1015.8
20260504001805 61 0 0.0 0.0 0.00 0.08 0.00 66 1015.8
20260504000904 62 121 0.0 1.0 0.00 0.08 0.00 62 1015.6
20260504000004 65 0 0.0 0.0 0.00 0.08 0.00 61 1015.6
20260503235403 67 122 0.0 1.0 0.00 0.08 0.00 57 1015.7
20260503234503 69 136 0.0 1.0 0.00 0.08 0.00 55 1015.8
20260503233629 70 201 0.0 1.0 0.00 0.08 0.00 50 1015.8
20260503232704 70 265 0.0 2.0 0.00 0.08 0.00 48 1015.8
20260503231804 70 275 1.0 3.0 0.00 0.08 0.00 48 1015.8
20260503230903 70 259 1.0 5.0 0.00 0.08 0.00 44 1016.0
20260503230026 72 284 0.0 5.0 0.00 0.08 0.00 47 1016.0
20260503225404 72 279 0.0 2.0 0.00 0.08 0.00 45 1016.0
20260503224503 70 266 2.0 5.0 0.00 0.08 0.00 44 1016.1